User: anonymous   Login
Location: Unspecified
(0.0000°N, 0.0000°E)
Time: 07:22:52
(UTC+00:00)
Language:

Kosmos-2184 - Orbit

View from above orbital plane
View from above orbital plane
View from above satellite
View from above satellite

Ground track
Ground track

The orbit data is extracted from the following two-line orbital elements,

1 21937U 92020A   24113.70611866  .00000140  00000-0  13383-3 0  9997
2 21937  82.9333 336.2664 0033395 175.1740 249.2260 13.73274110604521
Epoch (UTC): 22 April 2024 16:56:48
Eccentricity: 0.0033395
inclination: 82.9333°
perigee height: 963 km
apogee height: 1012 km
right ascension of ascending node: 336.2664°
argument of perigee: 175.1740°
revolutions per day: 13.73274110
mean anomaly at epoch: 249.2260°
orbit number at epoch: 60452

The dashed part of the orbit path shows where the satellite is in the earth's shadow,  

DLR